INTELSAT 23 (IS-23) (38867 NORAD) Tracking and Keplerian Element Data

This shows tracking and keplerian element data for the satellite.

Feedback or suggestion? Click here.




ElementValue
Catalog38867
NameINTELSAT 23 (IS-23)
Epoch Orbit2103
Epoch Day201.31935312
Epoch Year2018
RAAN86.2102
Inclination0.0082
Eccentricity0.0001898
Argument of Perigee26.9694
Mean Anonmoly246.8233
Mean Motion1.00272474
Decay Rate-3.01E-06
L11 38867U 12057A 18201.31935312 -.00000301 00000-0 00000-0 0 9991
L22 38867 0.0082 86.2102 0001898 26.9694 246.8233 1.00272474 21036

Live tracking and technical data element details for INTELSAT 23 (IS-23) (NORAD 38867). INTELSAT 23 (IS-23) can be tracked NOW for your location showing map with azimuth and elevation plus other details from your city location.

Track the satellite on the map from your city or location and see movement details for azimuth, elevation, latitude, longitude, range, height, and movement on the map or in text.







IsCatalogInMostPopularTable: catalog: 38867, numindb: 52
Update: records affected: 1



GetName: 38867 INTELSAT 23 (IS-23)

Hit Count: updated at: Sat, 21 Jul 2018 07:49:11 GMT